Location: Indian Hills
(32.9760°N, 85.9450°W)
Time: 06:31:35
(UTC+00:00)

Cosmos 1862 Rocket - Pass Details

Date: 09 December 2019
Orbit: 604 x 634 km, 82.5° (Epoch: 27 January)

Event Time Altitude Azimuth Distance (km) Brightness Sun altitude
Exits shadow 10:35:06 67° 195° (SSW) 688 3.6 -24.5°
Drops below altitude 10° 10:38:59 10° 178° (S) 2,009 6.3 -23.7°
Sets 10:41:13 0° 177° (S) 2,912 7.2 -23.2°
